星链-37654(STARLINK-37654)

导读

STARLINK-37654(NORAD编号69141)是SpaceX星链(Starlink)卫星互联网项目的一员,属于该星座批量部署的低轨通信卫星。星链项目旨在构建覆盖全球的低成本太空互联网系统,这类卫星运行于地球低轨道(高度多低于600公里),通过卫星群为全球提供宽带网络服务。 该卫星遵循SpaceX的空间可持续性设计:若发生故障,会在大气阻力作用下5年内自然离轨,再入大气层时会完全烧毁,对地面威胁几乎为零,同时项目采用主动脱轨策略减少空间碎片。作为星链扩容的组成部分,它服务于全球网络覆盖的扩展。

Basic Information
目录编号:
69141
目录名称:
STARLINK-37654
国际标识:
2026-110T
轨道中心:
EARTH
卫星名称:
星链-37654
卫星全名:
星链-37654(STARLINK-37654)
卫星状态:
在轨 (已飞行114 天)
发射日期:
2026-05-20 UTC
国别 :
美国 (US)
星等 :
--
This satellite is enrolled in the Space Conjunction Data Service (SCDS) and the current flight risk assessment level is: High Risk
Orbit Information
数据来源 国际轨道数据 AOE轨道数据
星历时间 2026-09-11T20:40:30+0800
7小时前
查看轨道信息
2026-09-09T22:00:00+0800
2天前
查看轨道信息
半长轴 6843.661km 6843.692km
偏心率 0.0002527 0.0001732
轨道倾角 97.285° 97.285°
近地点辐角 82.558° 65.923°
升交点赤经 89.751° 87.825°
平近点角 277.595° 5.241°
近地点 463.794km 464.369km
远地点 467.254km 466.741km
周期 93.906分钟 93.906分钟
每日圈数 15.334517 15.334412
Detailed Information
固有亮度:
5
最大亮度:
2.5
卫星平台:
Starlink V1.0
覆盖范围:
全球
运营商:
太空探索技术公司
运营商所在国:
美国
制造商(研发单位):
太空探索技术公司
制造商所在国:
美国
使用方式:
暂无
Satellite Introduction
Starlink 计划是 SpaceX 推出的全球卫星互联网项目,通过发射低轨道卫星,为全球尤其是偏远地区提供高速、低延迟的互联网服务。自 2019 年起,Starlink 已部署数千颗卫星,旨在缩小全球数字鸿沟,推动互联网普及。该项目还为军事、航空等行业提供通信支持,带来广泛经济效益。
2D Orbit Map
3D Orbit Map
Orbit Altitude Analysis Chart
Orbit Inclination Analysis Chart
Orbit Comprehensive Analysis Chart
View Comprehensive Chart
Conjunction Data List
Event ID Objects TCA Miss Dist (km) Collision Risk Probability Collision Risk Index (CRI) Action
CDM_260914-043405-322106-914121
2026-09-14T
04:34:26+0000
0.442 km
远距离
2.610966E-4 高风险 0.83
CDM_260912-101405-866106-914124
2026-09-12T
10:14:00+0000
0.502 km
远距离
1.559875E-4 高风险 0.79
CDM_260913-182305-322106-914121
2026-09-13T
18:23:40+0000
0.654 km
远距离
1.016922E-4 高风险 0.75
CDM_260914-030005-322106-914121
2026-09-14T
03:00:28+0000
1.003 km
极远距离
2.615424E-5 中风险 0.63
CDM_260913-164905-322106-914122
2026-09-13T
16:49:42+0000
1.090 km
极远距离
1.958687E-5 中风险 0.61
CDM_260912-105906-580106-914121
2026-09-12T
10:59:02+0000
1.036 km
极远距离
7.862601E-6 低风险 0.53
CDM_260913-195705-322106-914121
2026-09-13T
19:57:38+0000
1.653 km
极远距离
4.795379E-6 低风险 0.49
CDM_260912-101206-580106-914121
2026-09-12T
10:12:03+0000
1.336 km
极远距离
3.33808E-6 低风险 0.45
CDM_260912-085004-735406-914121
2026-09-12T
08:50:58+0000
2.032 km
极远距离
2.670392E-6 低风险 0.44
CDM_260913-151505-322106-914121
2026-09-13T
15:15:44+0000
2.202 km
极远距离
2.217314E-6 低风险 0.42
Miss Distance Evolution Trend with All Objects
Collision Probability Evolution Trend with All Objects